Preview of NWS' New Version of Forecast
This preview is not operational and should not be used for support decisions.

Regional Weather Roundup (RWR)

Issued by National Weather Service (NWS)

                            
000
ASUS42 KTBW 211718
RWRFL 
FLORIDA REGIONAL WEATHER ROUNDUP
NATIONAL WEATHER SERVICE TAMPA BAY RUSKIN FL
100 PM EDT SAT SEP 21 2019

NOTE: "FAIR" INDICATES FEW OR NO CLOUDS BELOW 12,000 FEET WITH NO
SIGNIFICANT WEATHER AND/OR OBSTRUCTIONS TO VISIBILITY.

FLZ001>010-012>015-112-114-115-211800-
PANHANDLE FLORIDA
  
CITY           SKY/WX    TMP DP  RH WIND       PRES   REMARKS
PENSACOLA      FAIR      86  68  54 SE17G23   30.20F                  
PENSACOLA NAS  PTSUNNY   85  71  63 E18       30.20S                  
MILTON NAS     FAIR      88  63  43 E10       30.20F                  
CRESTVIEW      FAIR      90  63  40 E10       30.23F                  
DUKE FIELD     FAIR      86  63  45 E10       30.20F                  
VALPARAISO     FAIR      86  64  47 SE14      30.20F                  
MARY ESTHER    MOSUNNY   86  67  52 E10G18    30.19F                  
TRI COUNTY     FAIR      88  61  40 NE13G22   30.22F                  
PANAMA CITY    FAIR      88  62  41 E10G21    30.19F                  
TYNDALL AFB    PTSUNNY   86  63  45 E16       30.19F                  
APALACHICOLA   FAIR      85  65  51 E15G25    30.20F                  

STATION/POSITION SKY/WX   TEMP    WIND        PRES    WAVE   SWELL
                          AIR SEA DIR/SP/G            HT/PER HT/PER
                          (F)     (DEG/KT/KT) (MB)    (FT/S) (FT/S)
30.1N   87.6W              81 84  100/ 19/ 23 1022.3F   8/ 7
29.2N   88.2W              83     110/ 17/ 23 1021.1F   7/ 7
28.8N   86.0W                 85  100/ 19/ 25 1021.3F   8/ 8   5/ 8
PANAMA CITY BEAC           83 83  110/ 15/ 21 1023.3F
TOWER C                    79      80/ 19/ 22 1022.5F
28.5N   84.5W              81      70/ 16/ 21 1022.0F

$$
FLZ011-016>038-118-127-128-134-139-239-211800-
NORTH FLORIDA
  
CITY           SKY/WX    TMP DP  RH WIND       PRES   REMARKS
MARIANNA       PTSUNNY   85  62  46 E10G20    30.21F                  
TALLAHASSEE    FAIR      87  64  46 E12G20    30.21F                  
PERRY          CLOUDY    86  66  50 E9        30.21F                  
LIVE OAK       MOSUNNY   86  63  45 NE13      30.21F                  
CROSS CITY       N/A     86  66  52 NE7       30.19F                  
LAKE CITY      PTSUNNY   82  63  51 E12G21    30.22F                  
GAINESVILLE    FAIR      86  64  47 NE16G23   30.22F                  
WILLISTON      PTSUNNY   83  68  59 E10G16    30.19S                  
PALATKA        PTSUNNY   81  64  57 E16       30.21F                  
MAYPORT NAS    PTSUNNY   85  65  51 E16       30.24S                  
JACKSONVILLE   PTSUNNY   86  60  41 E15       30.22F                  
JAX NAS        PTSUNNY   84  63  49 E17       30.23F                  
JAX CECIL      PTSUNNY   88  63  42 E13G20    30.22F                  
FERNANDINA BEA CLOUDY    83  65  55 E15G22    30.24F                  
ST AUGUSTINE   PTSUNNY   82  32  16 E12       30.23F                  
PALM COAST     SUNNY     84  63  48 E16G23    30.20F                  

STATION/POSITION SKY/WX   TEMP    WIND        PRES    WAVE   SWELL
                          AIR SEA DIR/SP/G            HT/PER HT/PER
                          (F)     (DEG/KT/KT) (MB)    (FT/S) (FT/S)
SHELL POINT      NOT AVBL
KEATON BEACH               83      60/ 10/ 14 1022.6F
CEDAR KEY                  80      80/ 13/ 14 1022.4F
FERNANDINA                 89 80   50/  7/ 13 1025.2S
30.7N   81.3W                 81                N/A     5/14   2/14
MAYPORT                    81 81   70/ 15/ 18 1024.6R
31.4N   80.9W              78 81   50/ 16/ 17 1024.4F   5/ 7   3/ 8
ST AUGUSTINE               81 81   90/ 17/ 19 1023.5F

$$
FLZ040-043>046-052-053-057-058-063-144-211800-
INTERIOR CENTRAL FLORIDA
  
CITY           SKY/WX    TMP DP  RH WIND       PRES   REMARKS
OCALA          PTSUNNY   85  64  49 E16G22    30.18F                  
LEESBURG       FAIR      86  63  45 E16G25    30.18F                  
SANFORD        FAIR      86  61  42 E17G25    30.18F                  
ORLANDO EXEC   PTSUNNY   85  62  46 E16       30.17F                  
ORLANDO INTL   PTSUNNY   85  64  49 NE18      30.16F                  
KISSIMMEE      FAIR      86  66  51 NE16      30.17S                  
WINTER HAVEN   PTSUNNY   87  66  49 NE17      30.15F                  
LAKELAND       PTSUNNY   88  66  48 E18       30.15F                  
SEBRING        PTSUNNY   85  70  60 E20       30.12F                  
OKEECHOBEE     PTSUNNY   82  70  65 E13G18    30.11F                  

$$
FLZ041-047-054-059-064-141-147-211800-
EAST CENTRAL FLORIDA
  
CITY           SKY/WX    TMP DP  RH WIND       PRES   REMARKS
ORMOND BEACH   MOSUNNY   84  63  48 E16G23    30.20F                  
DAYTONA BEACH  PTSUNNY   84  65  52 E17G25    30.19F                  
DELAND         PTSUNNY   84  64  51 E15G23    30.19F                  
NEW SMYRNA BEA MOSUNNY   84  66  54 E17G25    30.21F                  
JFK SPACE CTR  MOSUNNY   85  70  60 E15       30.17F                  
TITUSVILLE     PTSUNNY   86  64  48 NE14      30.19F                  
CAPE CANAVERAL FAIR      85  69  59 E15G22    30.16F                  
PATRICK AFB    FAIR      84  70  63 NE16      30.15F                  
MELBOURNE      PTSUNNY   86  68  54 NE18G25   30.15F                  
VERO BEACH     LGT RAIN  85  71  63 E17G28    30.13F                  
FT PIERCE      PTSUNNY   85  70  60 E14G23    30.12F                  
STUART         PTSUNNY   84  70  61 E18G26    30.13F                  

STATION/POSITION SKY/WX   TEMP    WIND        PRES    WAVE   SWELL
                          AIR SEA DIR/SP/G            HT/PER HT/PER
                          (F)     (DEG/KT/KT) (MB)    (FT/S) (FT/S)
28.5N   80.2W              81 83   60/ 17/ 23 1021.7F  10/15   8/15
28.9N   78.5W              79 80   60/ 19/ 25 1022.4F   9/14   8/14
TRIDENT PIER               84 82   50/ 11/ 15 1023.3F
28.4N   80.5W                 81                N/A     5/15   2/15
27.5N   80.2W                 82                N/A     8/14   5/14

$$
FLZ050-056-061-142-242-148-248-149-249-151-251-155-255-
160-260-211800-
WEST CENTRAL FLORIDA
  
CITY           SKY/WX    TMP DP  RH WIND       PRES   REMARKS
CRYSTAL RIVER  CLOUDY    86  63  45 NE13G20   30.17S                  
INVERNESS      PTSUNNY   86  66  51 E9G17     30.17F                  
BROOKSVILLE    FAIR      86  64  47 NE16G25   30.15F                  
CLEARWATER AIR FAIR      86  63  45 E13G18    30.12F                  
ST PETE CLEARW FAIR      88  65  46 E13       30.12F                  
TAMPA INTL     FAIR      88  62  41 E15       30.13F                  
TAMPA EXEC     FAIR      88  68  51 E10G18    30.14F                  
PLANT CITY     PTSUNNY   86  70  58 E14G21    30.16F                  
MACDILL AFB    FAIR      87  65  47 E18       30.12F                  
PETER O KNIGHT PTSUNNY   90  64  43 E14G24    30.13F                  
ST PETERSBURG  FAIR      85  69  58 E16       30.11F                  
SARASOTA       FAIR      89  68  49 E14G23    30.09F                  
VENICE         PTSUNNY   90  70  51 E17       30.10F HX  95           

STATION/POSITION SKY/WX   TEMP    WIND        PRES    WAVE   SWELL
                          AIR SEA DIR/SP/G            HT/PER HT/PER
                          (F)     (DEG/KT/KT) (MB)    (FT/S) (FT/S)
27.3N   84.2W                 84                N/A     7/ 7
CLEARWATER BEACH           84 83   80/  8/ 12 1020.8
MIDDLE TAMPA BAY           82     100/ 14/ 18 1020.5F
VENICE                     85 84   80/ 13/ 18 1018.9F

$$
FLZ066-069-070-075>078-162-262-165-265-211800-
SOUTHWEST FLORIDA AND KEYS
  
CITY           SKY/WX    TMP DP  RH WIND       PRES   REMARKS
PUNTA GORDA    FAIR      87  69  54 E17       30.10F                  
FT MYERS       PTSUNNY   88  70  55 E18G26    30.07F                  
SOUTHWEST INTL FAIR      87  70  56 NE24      30.07F                  
NAPLES         PTSUNNY   90  74  59 NE21G28   30.05F HX  99           
MARCO ISLAND   CLOUDY    86  73  65 E15G21    30.06F                  
IMMOKALEE      CLOUDY    88  72  58 NE17      30.06F                  
MARATHON       FAIR      86  76  71 NE24G31   30.02R HX  96           
KEY WEST NAS   PTSUNNY   81  77  88 NE9       30.01F THUNDER          
KEY WEST INTL  LGT RAIN  80  76  87 NE7G18    30.02F                  

STATION/POSITION SKY/WX   TEMP    WIND        PRES    WAVE   SWELL
                          AIR SEA DIR/SP/G            HT/PER HT/PER
                          (F)     (DEG/KT/KT) (MB)    (FT/S) (FT/S)
NAPLES                     85 83   70/ 11/ 19 1018.1F
26.0N   85.6W              83 85   70/ 21/ 25 1018.2F  10/ 8
DRY TORTUGAS               83      80/ 22/ 26 1017.1F
SAND KEY                   80      60/ 23/ 29 1014.9
SOMBRERO KEY               83      50/ 22/ 28 1016.0
LONG KEY                   81                 1015.4

$$
FLZ067-068-071>074-168-172>174-211800-
SOUTHEAST FLORIDA 
  
CITY           SKY/WX    TMP DP  RH WIND       PRES   REMARKS
W PALM BEACH   PTSUNNY   84  71  65 NE24G32   30.10F                  
BOCA RATON     MOSUNNY   86  73  66 E23G35    30.08F                  
FT LAUDER-EXEC PTSUNNY   86  72  62 NE24G32   30.06F                  
FT LAUDERDALE  PTSUNNY   84  73  69 NE23G32   30.05F                  
POMPANO BEACH  PTSUNNY   86  72  62 NE17G30   30.07F                  
PEMBROKE PINES PTSUNNY   86  73  65 NE24G33   30.07F                  
OPA LOCKA      PTSUNNY   86  73  65 NE23G35   30.06F                  
MIAMI          PTSUNNY   86  71  60 NE18G29   30.05F                  
WEST KENDALL   CLOUDY    84  75  74 E20G28    30.04S                  
HOMESTEAD      LGT RAIN  77  74  92 NE16G24   30.04R                  

STATION/POSITION SKY/WX   TEMP    WIND        PRES    WAVE   SWELL
                          AIR SEA DIR/SP/G            HT/PER HT/PER
                          (F)     (DEG/KT/KT) (MB)    (FT/S) (FT/S)
VIRGINIA KEY               81 83   30/ 12/ 19 1017.4
LAKE WORTH                 81 82   50/ 24/ 27 1020.4F
FOWEY ROCKS                81 84   60/ 30/ 32 1017.3F
SETTLEMENT POINT